Weather History for KTIK - January, 2013

Change the Weather History Date:

Friday, January 11, 2013

  Actual Average Record
Temperature  
Mean Temperature 58 °F -  
Max Temperature 69 °F 45 °F 69 °F (2013)
Min Temperature 46 °F 27 °F 9 °F (2011)
Degree Days  
Heating Degree Days 8    
Growing Degree Days 8 (Base 50)    
Moisture  
Dew Point 46 °F    
Average Humidity 73    
Maximum Humidity 100    
Minimum Humidity 44    
Precipitation  
Precipitation 0.00 in - - ()
Sea Level Pressure  
Sea Level Pressure 29.75 in    
Wind  
Wind Speed 17 mph (South)    
Max Wind Speed 26 mph    
Max Gust Speed 36 mph    
Visibility 10 miles    
Events      
Averages and records for this station are not official NWS values.
T = Trace of Precipitation, MM = Missing Value Source: NWS Daily Summary

Daily Weather History Graph

Daily Weather History Graph

Search for Another Location

Airport or City:

Trip Planner

Search our weather history database for the weather conditions in past years. The results will help you decide how hot, cold, wet, or windy it might be!

Date:

Astronomy

Jan. 11, 2013 Rise Set
Actual Time 7:38 AM CST 5:36 PM CST
Civil Twilight 7:10 AM CST 6:04 PM CST
Nautical Twilight 6:39 AM CST 6:35 PM CST
Astronomical Twilight 6:08 AM CST 7:06 PM CST
Moon 7:14 AM CST (1/11) 5:54 PM CST (1/11)
Length of Visible Light 10h 53m
Length of Day
9h 57m
Waning Crescent, 0% of the Moon is Illuminated
Jan 11
Waning Crescent
Jan 11
New
Jan 18
First Quarter
Jan 26
Full
Feb 3
Last Quarter

Hourly Weather History & Observations

Time (CST) Temp. Windchill Dew Point Humidity Pressure Visibility Wind Dir Wind Speed Gust Speed Precip Events Conditions
12:55 AM 46.8 °F - 46.8 °F 100% 29.81 in 10.0 mi South 16.1 mph - N/A   Clear
1:55 AM 46.8 °F - 46.8 °F 100% 29.82 in 10.0 mi South 13.8 mph - N/A   Clear
2:55 AM 46.4 °F 40.4 °F 46.0 °F 99% 29.81 in 10.0 mi South 13.8 mph - N/A   Clear
4:55 AM 46.0 °F 39.0 °F 45.1 °F 97% 29.75 in 10.0 mi South 17.3 mph - N/A   Clear
5:55 AM 46.2 °F 38.3 °F 44.6 °F 94% 29.75 in 10.0 mi South 21.9 mph - N/A   Mostly Cloudy
6:55 AM 46.9 °F - 43.9 °F 89% 29.75 in 10.0 mi South 23.0 mph - N/A   Overcast
7:55 AM 47.3 °F - 43.5 °F 87% 29.77 in 10.0 mi South 19.6 mph - N/A   Overcast
8:55 AM 49.1 °F - 43.2 °F 80% 29.79 in 10.0 mi South 19.6 mph - N/A   Scattered Clouds
9:55 AM 53.2 °F - 44.4 °F 72% 29.78 in 10.0 mi South 20.7 mph 26.5 mph N/A   Partly Cloudy
10:55 AM 56.7 °F - 45.1 °F 65% 29.78 in 10.0 mi SSW 19.6 mph 26.5 mph N/A   Clear
11:55 AM 59.2 °F - 45.1 °F 60% 29.74 in 10.0 mi South 21.9 mph 27.6 mph N/A   Clear
12:55 PM 61.9 °F - 45.7 °F 55% 29.69 in 10.0 mi South 20.7 mph 27.6 mph N/A   Clear
2:55 PM 67.6 °F - 46.9 °F 47% 29.66 in 10.0 mi South 26.5 mph 35.7 mph N/A   Clear
3:55 PM 69.4 °F - 46.6 °F 44% 29.66 in 10.0 mi SSW 20.7 mph - N/A   Clear
4:55 PM 67.5 °F - 46.9 °F 48% 29.67 in 10.0 mi South 16.1 mph - N/A   Clear
5:55 PM 64.6 °F - 48.0 °F 55% 29.68 in 10.0 mi South 16.1 mph - N/A   Clear
6:55 PM 62.2 °F - 48.6 °F 61% 29.70 in 10.0 mi South 16.1 mph - N/A   Partly Cloudy
7:55 PM 59.9 °F - 49.1 °F 67% 29.72 in 10.0 mi South 13.8 mph - N/A   Clear
8:55 PM 59.9 °F - 51.1 °F 73% 29.73 in 10.0 mi South 12.7 mph - N/A   Clear
9:55 PM 59.9 °F - 52.2 °F 76% 29.75 in 10.0 mi South 12.7 mph - N/A   Clear
10:55 PM 58.1 °F - 52.0 °F 80% 29.79 in 10.0 mi WNW 11.5 mph 17.3 mph N/A   Partly Cloudy
11:55 PM 58.5 °F - 41.2 °F 53% 29.82 in 10.0 mi NNW 11.5 mph - N/A   Partly Cloudy